Location: Newark
(54.3386°S, 169.8415°W)
Time: 12:25:12
(UTC+00:00)

Altair - All Passes

Search period start: 20 October 2019 00:00
Search period end: 30 October 2019 00:00
Orbit: 1501 x 1682 km, 47.2° (Epoch: 20 October)

Date Brightness Start Highest point End Pass type
(mag) Time Alt. Az. Time Alt. Az. Time Alt. Az.
20 Oct - 09:27:31 10° N 09:34:57 25° NE 09:42:12 10° E visible
20 Oct - 11:28:54 10° NW 11:38:04 48° NNE 11:46:55 10° E visible
20 Oct - 13:32:34 10° W 13:41:52 57° N 13:50:52 10° ENE visible
20 Oct - 15:36:55 10° W 15:45:26 40° NNW 15:53:45 10° NE daylight
20 Oct - 17:42:48 10° W 17:47:59 16° NW 17:53:06 10° NNW daylight
21 Oct - 09:02:44 10° N 09:09:56 24° NE 09:16:57 10° E visible
21 Oct - 11:03:49 10° NW 11:12:58 47° NNE 11:21:48 10° E visible
21 Oct - 13:07:25 10° WNW 13:16:45 57° N 13:25:47 10° ENE visible
21 Oct - 15:11:44 10° W 15:20:22 42° NNW 15:28:48 10° NE visible
21 Oct - 17:17:22 10° W 17:23:01 18° NW 17:28:36 10° N daylight
22 Oct - 08:37:59 10° N 08:44:55 22° NE 08:51:41 10° E visible
22 Oct - 10:38:46 10° NW 10:47:53 45° NNE 10:56:41 10° E visible
22 Oct - 12:42:16 10° WNW 12:51:39 57° N 13:00:42 10° ENE visible
22 Oct - 14:46:34 10° W 14:55:19 43° NNW 15:03:50 10° NE visible
22 Oct - 16:51:58 10° W 16:58:03 20° NW 17:04:02 10° N daylight
23 Oct - 08:13:17 10° N 08:19:54 21° NE 08:26:23 10° E visible
23 Oct - 10:13:43 10° NW 10:22:47 44° NNE 10:31:34 10° E visible
23 Oct - 12:17:07 10° WNW 12:26:32 57° N 12:35:37 10° ENE visible
23 Oct - 14:21:23 10° W 14:30:15 45° NNW 14:38:51 10° NE visible
23 Oct - 16:26:37 10° W 16:33:04 21° NW 16:39:24 10° N daylight
24 Oct - 07:48:37 10° N 07:54:54 19° NE 08:01:03 10° E visible
24 Oct - 09:48:41 10° NW 09:57:42 42° NNE 10:06:26 10° E visible
24 Oct - 11:51:58 10° WNW 12:01:25 57° N 12:10:31 10° ENE visible
24 Oct - 13:56:12 10° W 14:05:10 47° NNW 14:13:51 10° NE visible
24 Oct - 16:01:17 10° W 16:08:04 23° NW 16:14:44 10° N daylight
25 Oct - 07:24:02 10° NNE 07:29:54 18° NE 07:35:39 10° E visible
25 Oct - 09:23:39 10° NW 09:32:37 41° NNE 09:41:18 10° E visible
25 Oct - 11:26:49 10° WNW 11:36:18 57° N 11:45:25 10° E visible
25 Oct - 13:31:02 10° W 13:40:05 48° NNW 13:48:51 10° NE visible
25 Oct - 15:35:59 10° W 15:43:04 25° NW 15:50:01 10° N daylight
26 Oct - 06:59:30 10° NNE 07:04:54 16° NE 07:10:13 10° E visible
26 Oct - 08:58:39 10° NW 09:07:32 39° NNE 09:16:09 10° E visible
26 Oct - 11:01:40 10° WNW 11:11:11 57° N 11:20:19 10° E visible
26 Oct - 13:05:51 10° W 13:15:00 50° NNW 13:23:50 10° NE visible
26 Oct - 15:10:42 10° W 15:18:04 26° NW 15:25:16 10° N daylight
27 Oct - 06:35:04 10° NNE 06:39:55 15° NE 06:44:41 10° E daylight
27 Oct - 08:33:39 10° NNW 08:42:28 37° NNE 08:51:00 10° E visible
27 Oct - 10:36:33 10° WNW 10:46:03 56° N 10:55:13 10° E visible
27 Oct - 12:40:41 10° W 12:49:54 51° NNW 12:58:48 10° NE visible
27 Oct - 14:45:26 10° W 14:53:03 28° NW 15:00:29 10° NNE visible
28 Oct - 06:10:47 10° NNE 06:14:56 13° NE 06:19:02 10° E daylight
28 Oct - 08:08:41 10° NNW 08:17:23 36° NNE 08:25:51 10° E visible
28 Oct - 10:11:25 10° WNW 10:20:56 56° N 10:30:07 10° E visible
28 Oct - 12:15:30 10° W 12:24:49 52° NNW 12:33:46 10° ENE visible
28 Oct - 14:20:12 10° W 14:28:02 30° NW 14:35:40 10° NNE visible
29 Oct - 05:46:42 10° NE 05:49:58 12° NE 05:53:12 10° ENE daylight
29 Oct - 07:43:44 10° NNW 07:52:19 34° NE 08:00:40 10° E visible
29 Oct - 09:46:17 10° WNW 09:55:49 55° N 10:05:01 10° E visible
29 Oct - 11:50:20 10° W 11:59:42 54° NNW 12:08:43 10° ENE visible
29 Oct - 13:54:57 10° W 14:03:01 32° NW 14:10:50 10° NNE visible
